Weather History for Greenwood, SC

Change the Weather History Date:

Thursday, October 18, 2012

  Actual Average (KAND) Record (KAND)
Temperature  
Mean Temperature 62 °F -  
Max Temperature 77 °F 72 °F 84 °F (1964)
Min Temperature 48 °F 49 °F 35 °F (1978)
Degree Days  
Heating Degree Days 4    
Growing Degree Days 12 (Base 50)    
Moisture  
Dew Point 55 °F    
Average Humidity 79    
Maximum Humidity 97    
Minimum Humidity 54    
Precipitation  
Precipitation 0.00 in - - ()
Sea Level Pressure  
Sea Level Pressure 29.85 in    
Wind  
Wind Speed 3 mph (SSW)    
Max Wind Speed 12 mph    
Max Gust Speed -    
Visibility 9 miles    
Events Rain    
Averages and records for this station are not official NWS values.
T = Trace of Precipitation, MM = Missing Value Source: NWS Daily Summary

Daily Weather History Graph

Daily Weather History Graph

Search for Another Location

Airport:

Trip Planner

Search our weather history database for the weather conditions in past years. The results will help you decide how hot, cold, wet, or windy it might be!

Date:

Astronomy

Oct. 18, 2012 Rise Set
Actual Time 7:36 AM EDT 6:50 PM EDT
Civil Twilight 7:11 AM EDT 7:15 PM EDT
Nautical Twilight 6:42 AM EDT 7:44 PM EDT
Astronomical Twilight 6:13 AM EDT 8:13 PM EDT
Moon 11:08 AM EDT (10/18) 9:32 PM EDT (10/18)
Length of Visible Light 12h 04m
Length of Day
11h 13m
Waxing Crescent, 14% of the Moon is Illuminated
Oct 18
Waxing Crescent
Oct 21
First Quarter
Oct 29
Full
Nov 6
Last Quarter
Nov 13
New

Hourly Weather History & Observations

Time (EDT) Temp. Dew Point Humidity Pressure Visibility Wind Dir Wind Speed Gust Speed Precip Events Conditions
12:56 AM 50.0 °F 46.0 °F 86% 29.89 in 10.0 mi SE 3.5 mph - N/A   Clear
1:56 AM 52.0 °F 48.0 °F 86% 29.90 in 10.0 mi SSE 3.5 mph - N/A   Clear
2:56 AM 48.9 °F 46.9 °F 93% 29.89 in 10.0 mi Calm Calm - N/A   Clear
3:56 AM 48.0 °F 46.0 °F 93% 29.88 in 10.0 mi Calm Calm - N/A   Clear
4:56 AM 48.0 °F 46.9 °F 96% 29.89 in 9.0 mi Calm Calm - N/A   Clear
6:56 AM 48.9 °F 48.0 °F 97% 29.88 in 8.0 mi Calm Calm - N/A   Clear
7:56 AM 48.9 °F 48.0 °F 97% 29.92 in 4.0 mi NW 3.5 mph - N/A   Clear
8:56 AM 51.1 °F 50.0 °F 96% 29.88 in 7.0 mi ESE 4.6 mph - N/A   Clear
10:56 AM 66.9 °F 59.0 °F 76% 29.85 in 10.0 mi ESE 5.8 mph - N/A   Clear
11:45 AM 71.6 °F 60.8 °F 69% 29.88 in 10.0 mi SSW 8.1 mph - N/A   Mostly Cloudy
12:13 PM 71.6 °F 60.8 °F 69% 29.88 in 10.0 mi West 5.8 mph - 0.00 in   Mostly Cloudy
12:56 PM 75.0 °F 57.9 °F 55% 29.84 in 10.0 mi SSW 8.1 mph - 0.00 in   Mostly Cloudy
1:56 PM 73.9 °F 57.9 °F 57% 29.82 in 10.0 mi SW 9.2 mph - N/A   Overcast
2:56 PM 75.9 °F 59.0 °F 56% 29.80 in 10.0 mi WSW 11.5 mph - 0.00 in Rain Light Rain
3:56 PM 75.9 °F 57.9 °F 54% 29.80 in 10.0 mi SW 10.4 mph - 0.00 in   Overcast
4:56 PM 75.9 °F 57.9 °F 54% 29.79 in 10.0 mi WSW 9.2 mph - N/A   Mostly Cloudy
6:56 PM 71.1 °F 60.1 °F 68% 29.81 in 10.0 mi Calm Calm - N/A   Overcast
7:56 PM 69.1 °F 61.0 °F 75% 29.81 in 10.0 mi Calm Calm - N/A   Overcast
8:56 PM 64.9 °F 61.0 °F 87% 29.82 in 10.0 mi Calm Calm - N/A   Mostly Cloudy
9:56 PM 64.0 °F 61.0 °F 90% 29.82 in 10.0 mi Calm Calm - N/A   Mostly Cloudy
10:56 PM 60.1 °F 59.0 °F 96% 29.81 in 8.0 mi Calm Calm - N/A   Clear
11:56 PM 60.1 °F 59.0 °F 96% 29.81 in 6.0 mi Calm Calm - N/A   Clear